TimeEST,TemperatureF,Dew PointF,Humidity,Sea Level PressureIn,VisibilityMPH,Wind Direction,Wind SpeedMPH,Gust SpeedMPH,PrecipitationIn,Events,Conditions,WindDirDegrees,DateUTC
12:53 AM,61.0,55.9,83,30.10,10.0,West,4.6,-,N/A,,Clear,270,2013-02-20 05:53:00
1:53 AM,59.0,55.9,90,30.10,10.0,SW,3.5,-,N/A,,Clear,230,2013-02-20 06:53:00
2:53 AM,59.0,57.0,93,30.09,10.0,SW,4.6,-,N/A,,Partly Cloudy,220,2013-02-20 07:53:00
3:41 AM,57.2,57.2,100,30.10,10.0,Calm,Calm,-,N/A,,Mostly Cloudy,0,2013-02-20 08:41:00
3:53 AM,57.9,57.0,97,30.10,10.0,Calm,Calm,-,N/A,,Mostly Cloudy,0,2013-02-20 08:53:00
4:53 AM,59.0,57.9,96,30.09,10.0,Calm,Calm,-,N/A,,Mostly Cloudy,0,2013-02-20 09:53:00
5:09 AM,59.0,57.2,94,30.10,10.0,Calm,Calm,-,N/A,,Mostly Cloudy,0,2013-02-20 10:09:00
5:45 AM,59.0,57.2,94,30.11,10.0,Calm,Calm,-,N/A,,Mostly Cloudy,0,2013-02-20 10:45:00
5:53 AM,60.1,57.9,93,30.11,10.0,Calm,Calm,-,N/A,,Mostly Cloudy,0,2013-02-20 10:53:00
6:53 AM,62.1,60.1,93,30.12,10.0,North,5.8,-,N/A,,Overcast,10,2013-02-20 11:53:00
7:30 AM,62.6,59.0,88,30.13,10.0,NNE,11.5,-,N/A,,Mostly Cloudy,20,2013-02-20 12:30:00
7:53 AM,62.1,57.9,86,30.13,10.0,NNE,10.4,-,N/A,,Mostly Cloudy,20,2013-02-20 12:53:00
8:49 AM,66.2,53.6,64,30.15,10.0,North,11.5,-,N/A,,Mostly Cloudy,10,2013-02-20 13:49:00
8:53 AM,66.9,54.0,63,30.14,10.0,North,11.5,-,N/A,,Mostly Cloudy,360,2013-02-20 13:53:00
9:53 AM,66.0,53.1,63,30.15,10.0,NNE,8.1,-,N/A,,Mostly Cloudy,20,2013-02-20 14:53:00
10:43 AM,66.2,53.6,64,30.15,10.0,North,6.9,-,N/A,,Mostly Cloudy,360,2013-02-20 15:43:00
10:53 AM,68.0,55.0,63,30.15,10.0,North,5.8,-,N/A,,Mostly Cloudy,10,2013-02-20 15:53:00
11:38 AM,69.8,55.4,60,30.13,10.0,ENE,6.9,-,N/A,,Mostly Cloudy,60,2013-02-20 16:38:00
11:53 AM,71.1,55.9,59,30.12,10.0,Variable,4.6,-,N/A,,Scattered Clouds,0,2013-02-20 16:53:00
12:53 PM,73.9,57.9,57,30.08,10.0,Variable,3.5,-,N/A,,Mostly Cloudy,0,2013-02-20 17:53:00
1:53 PM,75.0,57.9,55,30.05,10.0,Calm,Calm,-,N/A,,Mostly Cloudy,0,2013-02-20 18:53:00
2:53 PM,78.1,59.0,52,30.04,10.0,Calm,Calm,-,N/A,,Mostly Cloudy,0,2013-02-20 19:53:00
3:53 PM,73.9,57.9,57,30.03,10.0,ENE,11.5,-,N/A,,Mostly Cloudy,70,2013-02-20 20:53:00
4:53 PM,71.1,55.9,59,30.06,10.0,ENE,13.8,-,N/A,,Overcast,60,2013-02-20 21:53:00
5:53 PM,71.6,55.4,57,30.06,10.0,ENE,13.8,-,N/A,,Overcast,60,2013-02-20 22:53:00
6:53 PM,64.0,54.0,70,30.08,10.0,ENE,8.1,-,N/A,,Mostly Cloudy,70,2013-02-20 23:53:00
7:53 PM,62.1,53.1,72,30.11,10.0,NE,9.2,-,N/A,,Mostly Cloudy,40,2013-02-21 00:53:00
8:53 PM,62.1,53.1,72,30.12,10.0,NNE,9.2,-,N/A,,Overcast,30,2013-02-21 01:53:00
9:53 PM,62.1,53.1,72,30.13,10.0,NNE,8.1,-,N/A,,Mostly Cloudy,30,2013-02-21 02:53:00
10:53 PM,61.0,54.0,78,30.12,10.0,NE,5.8,-,N/A,,Scattered Clouds,40,2013-02-21 03:53:00
11:53 PM,59.0,54.0,83,30.10,10.0,ESE,3.5,-,N/A,,Mostly Cloudy,120,2013-02-21 04:53:00